Regional Weather Roundup
Issued by NWS Cleveland, OH

Home | Current Version | Previous Version | Graphics & Text | Print | Product List | Glossary On
Versions: 1 2 3 4 5 6 7 8 9 10 11 12 13 14 15 16 17 18 19 20 21 22 23 24 25 26 27 28 29 30 31 32 33 34 35 36 37 38 39 40 41 42 43 44 45 46 47 48 49 50
000
ASUS41 KCLE 250512
RWRCLE
OHIO REGIONAL WEATHER ROUNDUP
NATIONAL WEATHER SERVICE WILMINGTON, OH
100 AM EDT MON SEP 25 2017

NOTE: "FAIR" INDICATES FEW OR NO CLOUDS BELOW 12,000 FEET WITH NO
SIGNIFICANT WEATHER AND/OR OBSTRUCTIONS TO VISIBILITY.

OHZ001>008-015>018-024>027-034-035-043-044-250600-
   NORTHWEST OHIO

CITY           SKY/WX    TMP DP  RH WIND       PRES   REMARKS
DEFIANCE       FAIR      70  64  81 E3        30.06F
FINDLAY        FAIR      72  65  78 E3        30.06F
TOLEDO EXPRESS FAIR      70  68  93 CALM      30.07S
TOLEDO EXEC    FAIR      70  67  90 E3        30.07F
LIMA           FAIR      65  60  84 CALM      30.07F
$$

OHZ009>014-019>023-028>033-038-089-250600-
   NORTHEAST OHIO

CITY           SKY/WX    TMP DP  RH WIND       PRES   REMARKS
CLE-HOPKINS    FAIR      72  66  81 CALM      30.10S
CLE-LAKEFRONT  FAIR      75  66  73 CALM      30.06F
CUY CO. ARPT   NOT AVBL
LORAIN-ELYRIA  FAIR      63  59  87 CALM      30.09S
ASHTABULA      FAIR      65  64  97 CALM      30.11F
AKRON-CANTON   FAIR      72  63  73 NE7       30.10F
WOOSTER        FAIR      62  60  93 CALM      30.10F
MANSFIELD      FAIR      66  62  87 S3        30.10F
YOUNGSTOWN     FAIR      68  66  93 E5        30.10F
$$

OHZ042-051>053-060>062-070>072-077>081-250600-
  SOUTHWEST OHIO

CITY           SKY/WX    TMP DP  RH WIND       PRES   REMARKS
CINC-COVINGTON FAIR      70  58  65 CALM      30.05S
CINC-LUNKEN    FAIR      62  61  96 CALM      30.05S
HAMILTON       FAIR      62  60  93 CALM      30.06S
DAYTON         MOCLDY    68  57  68 CALM      30.07S
WRIGHT-PAT AFB FAIR      65  64  96 CALM      30.06S
DAYTON GENERAL FAIR      65  59  81 E3        30.05S
WILMINGTON     FAIR      64  61  90 CALM      30.06S
$$

OHZ036-037-039>041-045>050-054>059-063>069-073>076-082>088-250600-
  CENTRAL AND SOUTHEAST OHIO

CITY           SKY/WX    TMP DP  RH WIND       PRES   REMARKS
COLUMBUS       FAIR      70  65  84 N3        30.06F
OSU AIRPORT    FAIR      69  64  84 N3        30.07F
BOLTON FIELD   FAIR      64  62  93 CALM      30.07F
RICKENBACK AFB FAIR      65  64  94 CALM      30.05F
NEWARK         FAIR      64  62  93 CALM      30.07F
MARION         FAIR      65  59  81 E3        30.08F
LANCASTER      FAIR      61  61 100 CALM      30.07F
ZANESVILLE     FAIR      67  64  90 CALM      30.08S
NEW PHILLY     FAIR      65  63  93 CALM      30.09F
$$




USA.gov is the U.S. government's official web portal to all federal, state and local government web resources and services.